Showing default

CSG-1, 44873

Orbit data source: Space-Track

CSG-1, 44873 is an Italian payload satellite in SSO that was launched on Wed, 18 Dec 2019 UTC via a SOYUZ-ST-A launch vehicle from the French Guiana (FRGUI). Payload-class satellites include a variety of spacecraft equipped with specific instruments for various scientific and technological missions. These include communications satellites like Starlink; space stations such as the ISS; scientific satellites like the Hubble; Earth observation satellites from companies like Planet Labs, Umbra, and HawkEye 360; GPS; miniature CubeSats for education and research; and military/defense satellites.

Loading next visibility...
Identifier
44873, 2019-092A
Orbit
SSO
Last TLE update
6 hours ago
Origin
Manufacturer
Thales Alenia
Mission
Operational Defense Radar Imaging
Bus & Motor
PRIMA, AOCS
Mass
2,205 kg wet, ~1,800 kg dry
Launch date (UTC)
2019-12-18 (6 years ago)
Launch vehicle
SOYUZ-ST-A
Launch site
French Guiana (FRGUI)
Object type
Payload
Rocket body
Debris
Shape & HBR
Box + 3 Pan, Unknown HBR
Radar Cross Section
8.940 m², Large (>1 m²)

Expand to show TLE details & history

TLE from 6 hours ago
0 CSG-1
1 44873U 19092A   25182.13167481  .00000345  00000-0  49890-4 0  9992
2 44873  97.8879   5.8225 0001546  88.0296 272.1094 14.82151139299478
Epoch: 2025-07-01T03:09Z
TLE epoch observation values (Epoch: 2025-07-01T03:09:36.703Z)
Latitude
-0.00005°
Longitude
38.98805°
Altitude
625.527 km
Speed
7.546 km/s
True Right ascension
00h 23m 17s
True Declination
0° 00' 00"
Sunlit
Object was in daylight at epoch
Visualization orbit readout
Latitude
-76.88964°
Longitude
-177.03965°
Altitude
651.226 km
Speed
7.53 km/s
Apparent Right ascension
09h 06m 33s
Apparent Declination
-59° 24' 15"
Sunlit
Object is in daylight
Visualization observer readout
Local Sidereal Time
20:49:30
Azimuth
186.45° SSW
Elevation
-70.327°
Doppler factor
1
Orbital elements
Apogee altitude
620.662 km
Perigee altitude
618.498 km
Semi-major axis
6,997.717 km
Eccentricity
0.00015
Inclination
97.8879°
RAAN
5.8225°
Arg. of periapsis
88.0296°
True anomaly
Unknown
Mean anomaly
272.1094°
Eccentric anomaly
Unknown
Mean motion
3.70773 °/min
Orbital period
97.09 mins
BSTAR
0.00004989
Loading maneuver chart data...
Loading SW <> Apogee altitude chart data...
Loading historical data...
Loading historical data...
Loading historical data...
Loading historical data...
Loading historical data...
Loading historical data...
Loading historical data...

CSG-1 Visibility forecast

Observer location: undefined°, undefined°

Span
Click to sort rows by Start time (UTC) header in descending order
Start Az.
Max El. time (UTC)
Max El. Az.
Max El.
End time (UTC)
End Az.
6 mins2025-07-01 11:24:15.759Z118.755° SE2025-07-01 11:27:15.759Z70.593° E22.097°2025-07-01 11:30:15.759Z19.862° NNE
5 mins2025-07-01 13:01:15.759Z219.726° SW2025-07-01 13:03:15.759Z260.526° W25.323°2025-07-01 13:06:15.759Z316.579° NNW
7 mins2025-07-02 00:48:15.759Z28.727° NE2025-07-02 00:51:15.759Z98.068° ESE37.771°2025-07-02 00:55:15.759Z175.469° S
|